W8KVG Weather Reports


Display with metric or nautical units.
time (UTC)temp
F
wind
direction
speed
MPH
gust
MPH
rain 1hr
in
rain 24hr
in
rain mn
in
humidity
%
barometer
mb
20260503184443 59 189 3.0 7.0 0.00 0.00 0.00 40 1014.4
20260503183939 59 290 1.0 8.0 0.00 0.00 0.00 43 1014.4
20260503183436 58 354 2.0 7.0 0.00 0.00 0.00 40 1014.6
20260503182933 57 180 3.0 7.0 0.00 0.00 0.00 41 1014.6
20260503182432 59 204 1.0 8.0 0.00 0.00 0.00 42 1014.4
20260503181929 58 15 3.0 5.0 0.00 0.00 0.00 40 1014.6
20260503181426 57 317 2.0 6.0 0.00 0.00 0.00 40 1014.8
20260503180922 58 243 2.0 7.0 0.00 0.00 0.00 41 1014.7
20260503180421 57 1 5.0 14.0 0.00 0.00 0.00 41 1014.6
20260503175916 60 1 4.0 6.0 0.00 0.00 0.00 40 1014.9
20260503175414 58 187 3.0 13.0 0.00 0.00 0.00 39 1015.0
20260503174909 58 114 0.0 5.0 0.00 0.00 0.00 45 1015.1
20260503174408 57 184 3.0 7.0 0.00 0.00 0.00 42 1015.0
20260503173903 58 351 3.0 5.0 0.00 0.00 0.00 44 1015.2
20260503173400 57 189 0.0 6.0 0.00 0.00 0.00 42 1015.0
20260503172856 56 334 3.0 9.0 0.00 0.00 0.00 40 1015.2
20260503172354 56 7 4.0 9.0 0.00 0.00 0.00 44 1015.3
20260503171850 55 329 2.0 7.0 0.00 0.00 0.00 43 1015.3
20260503171347 55 9 3.0 9.0 0.00 0.00 0.00 42 1015.3
20260503170845 56 283 4.0 8.0 0.00 0.00 0.00 42 1015.5
20260503170341 56 171 5.0 9.0 0.00 0.00 0.00 40 1015.4
20260503150733 50 173 2.0 7.0 0.00 0.00 0.00 42 1016.4
20260503150229 49 219 3.0 9.0 0.00 0.00 0.00 46 1016.4
20260503140153 48 176 5.0 7.0 0.00 0.00 0.00 56 1016.8
20260503131123 44 161 0.0 6.0 0.00 0.00 0.00 72 1016.9
20260503130621 43 202 1.0 6.0 0.00 0.00 0.00 73 1016.9
20260503130118 43 103 2.0 5.0 0.00 0.00 0.00 74 1017.0
20260503110510 34 77 0.0 2.0 0.00 0.00 0.00 91 1015.9
20260503090356 34 113 0.0 2.0 0.00 0.00 0.00 91 1015.2
20260503081323 33 111 0.0 2.0 0.00 0.00 0.00 91 1015.2
20260503080819 33 130 0.0 2.0 0.00 0.00 0.00 90 1015.2
20260503080317 33 123 1.0 2.0 0.00 0.00 0.00 90 1015.1
20260503072748 35 62 0.0 1.0 0.00 0.00 0.00 88 1015.1
20260503072245 35 19 0.0 2.0 0.00 0.00 0.00 88 1015.0
20260503071741 35 113 0.0 2.0 0.00 0.00 0.00 88 1015.0
20260503071238 36 126 0.0 2.0 0.00 0.00 0.00 87 1015.1
20260503070734 36 78 0.0 2.0 0.00 0.00 0.00 87 1015.0
20260503070232 37 80 0.0 1.0 0.00 0.00 0.00 87 1015.1
20260503060151 35 89 0.0 2.0 0.00 0.00 0.00 93 1015.0
20260503054638 35 126 0.0 1.0 0.00 0.00 0.00 92 1015.4
20260503054136 35 126 0.0 1.0 0.00 0.00 0.00 92 1015.2
20260503053633 35 113 0.0 1.0 0.00 0.00 0.00 92 1015.3
20260503053132 35 124 0.0 1.0 0.00 0.00 0.00 92 1015.2
20260503052628 35 89 0.0 2.0 0.00 0.00 0.00 92 1015.4
20260503052124 35 113 0.0 1.0 0.00 0.00 0.00 92 1015.3
20260503051620 35 50 0.0 2.0 0.00 0.00 0.00 92 1015.5
20260503051118 35 55 0.0 2.0 0.00 0.00 0.00 92 1015.2
20260503050614 35 98 0.0 2.0 0.00 0.00 0.00 91 1015.3
20260503050111 35 160 0.0 2.0 0.00 0.00 0.00 91 1015.5
20260503045609 36 52 0.0 2.0 0.00 0.00 0.00 91 1015.6
20260503045105 36 56 0.0 2.0 0.00 0.00 0.00 91 1015.3
20260503044602 36 135 0.0 2.0 0.00 0.00 0.00 91 1015.4
20260503044100 35 124 0.0 1.0 0.00 0.00 0.00 91 1015.6
20260503043555 36 23 0.0 3.0 0.00 0.00 0.00 91 1015.5
20260503043053 36 146 2.0 3.0 0.00 0.00 0.00 92 1015.6
20260503042549 36 198 0.0 2.0 0.00 0.00 0.00 92 1015.8
20260503042046 35 120 0.0 2.0 0.00 0.00 0.00 93 1015.6
20260503041543 35 178 0.0 3.0 0.00 0.00 0.00 93 1015.6
20260503041040 34 124 0.0 3.0 0.00 0.00 0.00 93 1015.5
20260503040537 34 42 0.0 2.0 0.00 0.00 0.00 92 1015.6
20260503040034 34 29 0.0 1.0 0.00 0.00 0.00 92 1015.6
20260503035532 34 70 0.0 2.0 0.00 0.00 0.00 91 1015.6
20260503035029 34 45 0.0 2.0 0.00 0.00 0.00 91 1015.5
20260503034526 34 10 0.0 2.0 0.00 0.00 0.00 90 1015.8
20260503034023 34 85 0.0 2.0 0.00 0.00 0.00 90 1015.8
20260503033520 34 46 0.0 2.0 0.00 0.00 0.00 90 1015.5
20260503033018 34 53 2.0 3.0 0.00 0.00 0.00 91 1015.7
20260503032516 34 0 0.0 2.0 0.00 0.00 0.00 90 1015.6
20260503032014 35 19 1.0 2.0 0.00 0.00 0.00 89 1015.5
20260503031512 35 77 0.0 2.0 0.00 0.00 0.00 87 1015.6
20260503031008 36 49 0.0 2.0 0.00 0.00 0.00 86 1015.6
20260503030504 37 57 0.0 2.0 0.00 0.00 0.00 86 1015.6
20260503030001 37 79 0.0 2.0 0.00 0.00 0.00 85 1015.4
20260503025458 37 123 0.0 2.0 0.00 0.00 0.00 83 1015.7
20260503024956 36 113 0.0 2.0 0.00 0.00 0.00 86 1015.8
20260503024452 36 40 0.0 2.0 0.00 0.00 0.00 86 1015.6
20260503023949 36 89 0.0 2.0 0.00 0.00 0.00 86 1015.6
20260503023446 37 35 0.0 2.0 0.00 0.00 0.00 86 1015.8
20260503022943 37 116 0.0 1.0 0.00 0.00 0.00 87 1015.8
20260503022438 37 89 0.0 2.0 0.00 0.00 0.00 87 1015.7
20260503021934 37 44 0.0 1.0 0.00 0.00 0.00 86 1015.8
20260503021431 38 89 0.0 2.0 0.00 0.00 0.00 85 1015.7
20260503020928 37 62 0.0 2.0 0.00 0.00 0.00 85 1015.8
20260503020426 37 60 0.0 1.0 0.00 0.00 0.00 85 1015.8
20260503015922 37 13 0.0 1.0 0.00 0.00 0.00 84 1015.7
20260503015419 38 89 0.0 2.0 0.00 0.00 0.00 83 1015.6
20260503014915 39 60 0.0 1.0 0.00 0.00 0.00 81 1015.8
20260503014412 39 72 0.0 2.0 0.00 0.00 0.00 81 1015.9
20260503013910 39 22 0.0 1.0 0.00 0.00 0.00 81 1015.8
20260503013407 40 32 0.0 2.0 0.00 0.00 0.00 81 1015.8
20260503012904 40 36 1.0 2.0 0.00 0.00 0.00 80 1015.7
20260503012402 39 119 0.0 2.0 0.00 0.00 0.00 79 1015.7
20260503011858 40 110 0.0 2.0 0.00 0.00 0.00 79 1015.9
20260503011355 40 146 0.0 2.0 0.00 0.00 0.00 78 1015.7
20260503010851 40 118 0.0 2.0 0.00 0.00 0.00 76 1015.7
20260503010348 41 166 1.0 2.0 0.00 0.00 0.00 76 1015.6
20260503005845 41 205 0.0 3.0 0.00 0.00 0.00 77 1015.5
20260503005343 41 114 1.0 3.0 0.00 0.00 0.00 76 1015.5
20260503004839 41 22 1.0 3.0 0.00 0.00 0.00 76 1015.8
20260503004336 41 15 0.0 3.0 0.00 0.00 0.00 75 1015.5
20260503003833 41 99 0.0 2.0 0.00 0.00 0.00 78 1015.6
20260503003325 40 15 0.0 2.0 0.00 0.00 0.00 77 1015.4
20260503002822 40 40 0.0 2.0 0.00 0.00 0.00 77 1015.3
20260503002319 41 46 1.0 2.0 0.00 0.00 0.00 75 1015.5
20260503001815 41 44 0.0 2.0 0.00 0.00 0.00 75 1015.2
20260503001311 41 18 1.0 2.0 0.00 0.00 0.00 77 1015.2
20260503000809 41 39 2.0 2.0 0.00 0.00 0.00 77 1015.1
20260503000307 41 68 1.0 2.0 0.00 0.00 0.00 76 1015.2
20260502235803 41 35 2.0 3.0 0.00 0.00 0.00 76 1015.1
20260502235301 41 22 2.0 3.0 0.00 0.00 0.00 76 1015.1
20260502234757 41 359 2.0 2.0 0.00 0.00 0.00 78 1015.0
20260502234254 41 187 0.0 2.0 0.00 0.00 0.00 78 1014.9
20260502233750 41 20 1.0 2.0 0.00 0.00 0.00 77 1015.0
20260502233247 41 6 2.0 3.0 0.00 0.00 0.00 76 1015.0
20260502232743 42 144 0.0 2.0 0.00 0.00 0.00 75 1015.0
20260502232240 42 165 0.0 2.0 0.00 0.00 0.00 77 1014.9
20260502231737 42 155 2.0 2.0 0.00 0.00 0.00 76 1014.9
20260502231235 42 16 1.0 2.0 0.00 0.00 0.00 75 1014.9
20260502230733 42 1 2.0 3.0 0.00 0.00 0.00 76 1015.0
20260502230231 42 16 3.0 4.0 0.00 0.00 0.00 77 1015.1
20260502225727 42 91 2.0 3.0 0.00 0.00 0.00 75 1015.0
20260502225224 42 353 2.0 3.0 0.00 0.00 0.00 75 1014.9
20260502224720 42 0 1.0 4.0 0.00 0.00 0.00 76 1015.2
20260502224217 42 11 2.0 3.0 0.00 0.00 0.00 76 1015.1
20260502223714 42 199 0.0 3.0 0.00 0.00 0.00 75 1015.3
20260502223212 42 177 1.0 4.0 0.00 0.00 0.00 75 1014.9
20260502222710 42 113 1.0 4.0 0.00 0.00 0.00 74 1015.1
20260502222206 42 130 0.0 2.0 0.00 0.00 0.00 75 1015.0
20260502221702 42 23 3.0 5.0 0.00 0.00 0.00 76 1015.0
20260502221159 42 155 1.0 5.0 0.00 0.00 0.00 73 1015.0
20260502220655 42 344 2.0 5.0 0.00 0.00 0.00 72 1015.0
20260502220151 42 137 2.0 7.0 0.00 0.00 0.00 72 1015.2
20260502215649 42 11 3.0 4.0 0.00 0.00 0.00 75 1015.1
20260502215145 42 8 4.0 5.0 0.00 0.00 0.00 75 1015.0
20260502214643 42 352 3.0 6.0 0.00 0.00 0.00 75 1014.9
20260502214140 43 2 3.0 3.0 0.00 0.00 0.00 75 1014.9
20260502213637 43 347 6.0 8.0 0.00 0.00 0.00 73 1014.8
20260502213134 43 74 1.0 5.0 0.00 0.00 0.00 74 1014.8
20260502212633 43 161 2.0 5.0 0.00 0.00 0.00 75 1015.1
20260502212131 44 3 4.0 5.0 0.00 0.00 0.00 72 1014.8
20260502211626 44 49 1.0 2.0 0.00 0.00 0.00 72 1014.8
20260502211123 44 190 2.0 6.0 0.00 0.00 0.00 73 1014.8
20260502210621 44 359 2.0 4.0 0.00 0.00 0.00 72 1014.8
20260502210112 44 10 2.0 5.0 0.00 0.00 0.00 71 1014.6
20260502205609 43 5 3.0 7.0 0.00 0.00 0.00 73 1014.5
20260502205106 44 349 2.0 3.0 0.00 0.00 0.00 74 1014.6
20260502204602 44 200 2.0 7.0 0.00 0.00 0.00 73 1014.6
20260502204100 45 200 1.0 5.0 0.00 0.00 0.00 73 1014.7
20260502203557 43 1 4.0 5.0 0.00 0.00 0.00 74 1014.8
20260502203055 43 138 3.0 7.0 0.00 0.00 0.00 78 1014.8
20260502202550 42 9 4.0 11.0 0.00 0.00 0.00 78 1015.0
20260502202048 42 326 1.0 4.0 0.00 0.00 0.00 78 1014.8
20260502201543 42 12 3.0 6.0 0.00 0.00 0.00 79 1014.6
20260502201035 42 119 2.0 5.0 0.00 0.00 0.00 81 1014.6
20260502200531 42 17 2.0 5.0 0.00 0.00 0.00 81 1015.0
20260502200029 42 44 1.0 5.0 0.00 0.00 0.00 81 1014.8
20260502195526 42 155 3.0 4.0 0.00 0.00 0.00 81 1014.8
20260502195022 42 41 3.0 5.0 0.00 0.00 0.00 79 1014.7
20260502194519 42 161 2.0 5.0 0.00 0.00 0.00 80 1014.8
20260502194015 42 4 3.0 6.0 0.00 0.00 0.00 79 1015.0
20260502193512 43 135 1.0 3.0 0.00 0.00 0.00 80 1014.9
20260502193003 43 138 1.0 4.0 0.00 0.00 0.00 78 1014.9
20260502192459 43 126 0.0 3.0 0.00 0.00 0.00 79 1014.9
20260502191956 42 134 2.0 3.0 0.00 0.00 0.00 79 1014.9
20260502191453 42 1 2.0 7.0 0.00 0.00 0.00 80 1014.8
20260502190950 42 6 5.0 10.0 0.00 0.00 0.00 77 1014.9
20260502190442 42 24 1.0 4.0 0.00 0.00 0.00 78 1015.1
20260502185938 42 13 2.0 4.0 0.00 0.00 0.00 79 1014.9
20260502185436 42 136 2.0 3.0 0.00 0.00 0.00 79 1015.0
20260502184931 43 13 2.0 3.0 0.00 0.00 0.00 81 1015.0